Time,TemperatureF,DewpointF,PressureIn,WindDirection,WindDirectionDegrees,WindSpeedMPH,WindSpeedGustMPH,Humidity,HourlyPrecipIn,Conditions,Clouds,dailyrainin,SoftwareType,DateUTC
2013-01-27 00:00:00,28.1,25.3,30.44,SW,219,0.0,0.0,89,0.00,,---,0.07,VWS V14.01,2013-01-27 05:00:00,
2013-01-27 00:04:00,28.0,25.2,30.44,SW,219,0.0,0.0,89,0.00,,---,0.00,VWS V14.01,2013-01-27 05:04:00,
2013-01-27 00:05:00,28.0,25.2,30.44,SW,219,0.0,0.0,89,0.00,,---,0.00,VWS V14.01,2013-01-27 05:05:00,
2013-01-27 00:09:00,27.9,25.1,30.43,SW,219,0.0,0.0,89,0.00,,---,0.00,VWS V14.01,2013-01-27 05:09:00,
2013-01-27 00:10:00,27.9,25.1,30.43,SW,219,0.0,0.0,89,0.00,,---,0.00,VWS V14.01,2013-01-27 05:10:00,
2013-01-27 00:14:00,27.8,25.2,30.44,SW,219,0.0,0.0,90,0.00,,---,0.00,VWS V14.01,2013-01-27 05:14:00,
2013-01-27 00:15:00,27.8,25.2,30.44,SW,219,0.0,0.0,90,0.00,,---,0.00,VWS V14.01,2013-01-27 05:15:00,
2013-01-27 00:19:00,27.7,25.2,30.44,SW,219,0.0,0.0,90,0.00,,---,0.00,VWS V14.01,2013-01-27 05:19:00,
2013-01-27 00:20:00,27.7,25.2,30.44,SW,219,0.0,0.0,90,0.00,,---,0.00,VWS V14.01,2013-01-27 05:20:00,
2013-01-27 00:24:00,27.7,25.2,30.44,SW,219,0.0,0.0,90,0.00,,---,0.00,VWS V14.01,2013-01-27 05:24:00,
2013-01-27 00:25:00,27.7,25.2,30.44,SW,219,0.0,0.0,90,0.00,,---,0.00,VWS V14.01,2013-01-27 05:25:00,
2013-01-27 00:29:00,27.5,25.0,30.44,SW,219,0.0,0.0,90,0.00,,---,0.00,VWS V14.01,2013-01-27 05:29:00,
2013-01-27 00:30:00,27.5,25.0,30.44,SW,219,0.0,0.0,90,0.00,,---,0.00,VWS V14.01,2013-01-27 05:30:00,
2013-01-27 00:34:00,27.4,24.9,30.44,SW,219,0.0,0.0,90,0.00,,---,0.00,VWS V14.01,2013-01-27 05:34:00,
2013-01-27 00:35:00,27.4,24.9,30.44,SW,219,0.0,0.0,90,0.00,,---,0.00,VWS V14.01,2013-01-27 05:35:00,
2013-01-27 00:40:00,27.4,24.6,30.45,SW,219,0.0,0.0,89,0.00,,---,0.00,VWS V14.01,2013-01-27 05:40:00,
2013-01-27 00:44:00,27.4,24.6,30.45,SW,219,0.0,0.0,89,0.00,,---,0.00,VWS V14.01,2013-01-27 05:44:00,
2013-01-27 00:45:00,27.4,24.6,30.45,SW,219,0.0,0.0,89,0.00,,---,0.00,VWS V14.01,2013-01-27 05:45:00,
2013-01-27 00:49:00,27.6,24.8,30.45,SW,219,0.0,0.0,89,0.00,,---,0.00,VWS V14.01,2013-01-27 05:49:00,
2013-01-27 00:50:00,27.6,24.8,30.45,SW,219,0.0,0.0,89,0.00,,---,0.00,VWS V14.01,2013-01-27 05:50:00,
2013-01-27 00:54:00,27.6,24.5,30.45,SW,219,0.0,1.0,88,0.00,,---,0.00,VWS V14.01,2013-01-27 05:54:00,
2013-01-27 00:55:00,27.6,24.5,30.45,SW,219,0.0,1.0,88,0.00,,---,0.00,VWS V14.01,2013-01-27 05:55:00,
2013-01-27 00:59:00,27.2,24.1,30.45,SW,219,0.0,0.0,88,0.00,,---,0.00,VWS V14.01,2013-01-27 05:59:00,
2013-01-27 01:00:00,27.2,24.1,30.45,SW,219,0.0,0.0,88,0.00,,---,0.00,VWS V14.01,2013-01-27 06:00:00,
2013-01-27 01:05:00,27.0,24.2,30.45,SW,219,0.0,1.0,89,0.00,,---,0.00,VWS V14.01,2013-01-27 06:05:00,
2013-01-27 01:09:00,26.7,23.9,30.45,SW,219,0.0,1.0,89,0.00,,---,0.00,VWS V14.01,2013-01-27 06:09:00,
2013-01-27 01:10:00,27.0,23.6,30.47,SW,219,0.0,0.0,87,0.00,,---,0.00,VWS V14.01,2013-01-27 06:10:00,
2013-01-27 01:14:00,26.6,23.8,30.45,SW,219,0.0,0.0,89,0.00,,---,0.00,VWS V14.01,2013-01-27 06:14:00,
2013-01-27 01:15:00,26.6,23.8,30.45,SW,219,0.0,0.0,89,0.00,,---,0.00,VWS V14.01,2013-01-27 06:15:00,
2013-01-27 01:19:00,26.5,23.7,30.45,SW,219,0.0,0.0,89,0.00,,---,0.00,VWS V14.01,2013-01-27 06:19:00,
2013-01-27 01:20:00,26.5,23.7,30.45,SW,219,0.0,0.0,89,0.00,,---,0.00,VWS V14.01,2013-01-27 06:20:00,
2013-01-27 01:25:00,26.5,23.7,30.46,SW,219,0.0,0.0,89,0.00,,---,0.00,VWS V14.01,2013-01-27 06:25:00,
2013-01-27 01:29:00,26.5,23.7,30.46,SW,219,0.0,0.0,89,0.00,,---,0.00,VWS V14.01,2013-01-27 06:29:00,
2013-01-27 01:30:00,26.5,23.7,30.46,SW,219,0.0,0.0,89,0.00,,---,0.00,VWS V14.01,2013-01-27 06:30:00,
2013-01-27 01:35:00,26.6,23.8,30.47,SW,219,0.0,0.0,89,0.00,,---,0.00,VWS V14.01,2013-01-27 06:35:00,
2013-01-27 01:39:00,26.9,24.1,30.47,SW,219,0.0,0.0,89,0.00,,---,0.00,VWS V14.01,2013-01-27 06:39:00,
2013-01-27 01:40:00,26.9,24.1,30.47,SW,219,0.0,0.0,89,0.00,,---,0.00,VWS V14.01,2013-01-27 06:40:00,
2013-01-27 01:44:00,27.0,23.9,30.47,SW,219,0.0,0.0,88,0.00,,---,0.00,VWS V14.01,2013-01-27 06:44:00,
2013-01-27 01:45:00,27.0,23.9,30.47,SW,219,0.0,0.0,88,0.00,,---,0.00,VWS V14.01,2013-01-27 06:45:00,
2013-01-27 01:50:00,27.2,24.1,30.47,SW,219,0.0,0.0,88,0.00,,---,0.00,VWS V14.01,2013-01-27 06:50:00,
2013-01-27 01:55:00,27.3,24.0,30.48,SW,219,0.0,0.0,87,0.00,,---,0.00,VWS V14.01,2013-01-27 06:55:00,
2013-01-27 01:59:00,27.2,23.9,30.48,SW,219,0.0,0.0,87,0.00,,---,0.00,VWS V14.01,2013-01-27 06:59:00,
2013-01-27 02:00:00,27.2,23.9,30.48,SW,219,0.0,0.0,87,0.00,,---,0.00,VWS V14.01,2013-01-27 07:00:00,
2013-01-27 02:04:00,27.1,23.8,30.48,SW,219,0.0,0.0,87,0.00,,---,0.00,VWS V14.01,2013-01-27 07:04:00,
2013-01-27 02:05:00,27.1,23.8,30.48,SW,219,0.0,0.0,87,0.00,,---,0.00,VWS V14.01,2013-01-27 07:05:00,
2013-01-27 02:10:00,27.0,23.6,30.47,SW,219,0.0,0.0,87,0.00,,---,0.00,VWS V14.01,2013-01-27 07:10:00,
2013-01-27 02:14:00,27.0,23.6,30.47,SW,219,0.0,0.0,87,0.00,,---,0.00,VWS V14.01,2013-01-27 07:14:00,
2013-01-27 02:15:00,27.0,23.6,30.47,SW,219,0.0,0.0,87,0.00,,---,0.00,VWS V14.01,2013-01-27 07:15:00,
2013-01-27 02:19:00,26.9,23.6,30.48,SW,219,0.0,0.0,87,0.00,,---,0.00,VWS V14.01,2013-01-27 07:19:00,
2013-01-27 02:20:00,26.9,23.6,30.48,SW,219,0.0,0.0,87,0.00,,---,0.00,VWS V14.01,2013-01-27 07:20:00,
2013-01-27 02:24:00,26.7,23.4,30.48,SW,219,0.0,0.0,87,0.00,,---,0.00,VWS V14.01,2013-01-27 07:24:00,
2013-01-27 02:25:00,26.7,23.4,30.48,SW,219,0.0,0.0,87,0.00,,---,0.00,VWS V14.01,2013-01-27 07:25:00,
2013-01-27 02:29:00,26.3,23.0,30.47,SW,219,0.0,1.0,87,0.00,,---,0.00,VWS V14.01,2013-01-27 07:29:00,
2013-01-27 02:30:00,26.3,23.0,30.47,SW,219,0.0,1.0,87,0.00,,---,0.00,VWS V14.01,2013-01-27 07:30:00,
2013-01-27 02:35:00,26.1,23.0,30.47,SW,219,0.0,0.0,88,0.00,,---,0.00,VWS V14.01,2013-01-27 07:35:00,
2013-01-27 02:39:00,26.1,23.0,30.47,SW,219,0.0,0.0,88,0.00,,---,0.00,VWS V14.01,2013-01-27 07:39:00,
2013-01-27 02:40:00,26.1,23.0,30.47,SW,219,0.0,0.0,88,0.00,,---,0.00,VWS V14.01,2013-01-27 07:40:00,
2013-01-27 02:45:00,26.1,23.0,30.47,SW,219,0.0,0.0,88,0.00,,---,0.00,VWS V14.01,2013-01-27 07:45:00,
2013-01-27 02:49:00,26.2,22.9,30.47,SW,219,0.0,0.0,87,0.00,,---,0.00,VWS V14.01,2013-01-27 07:49:00,
2013-01-27 02:50:00,26.2,22.9,30.47,SW,219,0.0,0.0,87,0.00,,---,0.00,VWS V14.01,2013-01-27 07:50:00,
2013-01-27 02:54:00,26.2,22.9,30.48,SW,219,0.0,0.0,87,0.00,,---,0.00,VWS V14.01,2013-01-27 07:54:00,
2013-01-27 02:55:00,26.2,22.9,30.48,SW,219,0.0,0.0,87,0.00,,---,0.00,VWS V14.01,2013-01-27 07:55:00,
2013-01-27 03:00:00,26.1,22.8,30.48,SW,219,0.0,0.0,87,0.00,,---,0.00,VWS V14.01,2013-01-27 08:00:00,
2013-01-27 03:04:00,26.2,22.9,30.48,SW,219,0.0,0.0,87,0.00,,---,0.00,VWS V14.01,2013-01-27 08:04:00,
2013-01-27 03:05:00,26.2,22.9,30.48,SW,219,0.0,0.0,87,0.00,,---,0.00,VWS V14.01,2013-01-27 08:05:00,
2013-01-27 03:09:00,26.2,22.9,30.48,SW,219,0.0,0.0,87,0.00,,---,0.00,VWS V14.01,2013-01-27 08:09:00,
2013-01-27 03:10:00,26.2,22.9,30.48,SW,219,0.0,0.0,87,0.00,,---,0.00,VWS V14.01,2013-01-27 08:10:00,
2013-01-27 03:14:00,26.2,22.9,30.48,SW,219,0.0,0.0,87,0.00,,---,0.00,VWS V14.01,2013-01-27 08:14:00,
2013-01-27 03:15:00,26.2,22.9,30.48,SW,219,0.0,0.0,87,0.00,,---,0.00,VWS V14.01,2013-01-27 08:15:00,
2013-01-27 03:20:00,26.0,22.7,30.48,SW,219,0.0,0.0,87,0.00,,---,0.00,VWS V14.01,2013-01-27 08:20:00,
2013-01-27 03:24:00,25.8,22.7,30.48,SW,219,0.0,0.0,88,0.00,,---,0.00,VWS V14.01,2013-01-27 08:24:00,
2013-01-27 03:25:00,25.8,22.7,30.48,SW,219,0.0,0.0,88,0.00,,---,0.00,VWS V14.01,2013-01-27 08:25:00,
2013-01-27 03:29:00,25.7,22.6,30.48,SW,219,0.0,0.0,88,0.00,,---,0.00,VWS V14.01,2013-01-27 08:29:00,
2013-01-27 03:30:00,25.7,22.6,30.48,SW,219,0.0,0.0,88,0.00,,---,0.00,VWS V14.01,2013-01-27 08:30:00,
2013-01-27 03:34:00,25.5,22.5,30.48,SW,219,0.0,0.0,88,0.00,,---,0.00,VWS V14.01,2013-01-27 08:34:00,
2013-01-27 03:35:00,25.5,22.5,30.48,SW,219,0.0,0.0,88,0.00,,---,0.00,VWS V14.01,2013-01-27 08:35:00,
2013-01-27 03:39:00,25.4,22.6,30.48,SW,219,0.0,0.0,89,0.00,,---,0.00,VWS V14.01,2013-01-27 08:39:00,
2013-01-27 03:40:00,25.4,22.6,30.48,SW,219,0.0,0.0,89,0.00,,---,0.00,VWS V14.01,2013-01-27 08:40:00,
2013-01-27 03:44:00,25.4,22.4,30.48,SW,219,0.0,0.0,88,0.00,,---,0.00,VWS V14.01,2013-01-27 08:44:00,
2013-01-27 03:45:00,25.4,22.4,30.48,SW,219,0.0,0.0,88,0.00,,---,0.00,VWS V14.01,2013-01-27 08:45:00,
2013-01-27 03:49:00,25.3,22.5,30.48,SW,219,0.0,0.0,89,0.00,,---,0.00,VWS V14.01,2013-01-27 08:49:00,
2013-01-27 03:50:00,25.3,22.5,30.48,SW,219,0.0,0.0,89,0.00,,---,0.00,VWS V14.01,2013-01-27 08:50:00,
2013-01-27 03:54:00,25.1,22.3,30.49,SW,219,0.0,0.0,89,0.00,,---,0.00,VWS V14.01,2013-01-27 08:54:00,
2013-01-27 03:55:00,25.1,22.3,30.49,SW,219,0.0,0.0,89,0.00,,---,0.00,VWS V14.01,2013-01-27 08:55:00,
2013-01-27 04:00:00,25.0,22.2,30.48,SW,219,0.0,0.0,89,0.00,,---,0.00,VWS V14.01,2013-01-27 09:00:00,
2013-01-27 04:04:00,24.9,22.1,30.48,SW,219,0.0,0.0,89,0.00,,---,0.00,VWS V14.01,2013-01-27 09:04:00,
2013-01-27 04:05:00,24.9,22.1,30.48,SW,219,0.0,0.0,89,0.00,,---,0.00,VWS V14.01,2013-01-27 09:05:00,
2013-01-27 04:09:00,24.8,22.0,30.48,SW,219,0.0,0.0,89,0.00,,---,0.00,VWS V14.01,2013-01-27 09:09:00,
2013-01-27 04:10:00,24.8,22.0,30.48,SW,219,0.0,0.0,89,0.00,,---,0.00,VWS V14.01,2013-01-27 09:10:00,
2013-01-27 04:15:00,24.7,21.9,30.49,SW,219,0.0,0.0,89,0.00,,---,0.00,VWS V14.01,2013-01-27 09:15:00,
2013-01-27 04:19:00,24.5,21.7,30.49,SW,219,0.0,0.0,89,0.00,,---,0.00,VWS V14.01,2013-01-27 09:19:00,
2013-01-27 04:20:00,24.5,21.7,30.49,SW,219,0.0,0.0,89,0.00,,---,0.00,VWS V14.01,2013-01-27 09:20:00,
2013-01-27 04:24:00,24.4,21.6,30.49,SW,219,0.0,0.0,89,0.00,,---,0.00,VWS V14.01,2013-01-27 09:24:00,
2013-01-27 04:25:00,24.4,21.6,30.49,SW,219,0.0,0.0,89,0.00,,---,0.00,VWS V14.01,2013-01-27 09:25:00,
2013-01-27 04:30:00,24.3,21.5,30.49,SW,219,0.0,0.0,89,0.00,,---,0.00,VWS V14.01,2013-01-27 09:30:00,
2013-01-27 04:34:00,24.1,21.3,30.49,SW,219,0.0,0.0,89,0.00,,---,0.00,VWS V14.01,2013-01-27 09:34:00,
2013-01-27 04:35:00,24.1,21.3,30.49,SW,219,0.0,0.0,89,0.00,,---,0.00,VWS V14.01,2013-01-27 09:35:00,
2013-01-27 04:39:00,24.0,21.5,30.49,SW,219,0.0,0.0,90,0.00,,---,0.00,VWS V14.01,2013-01-27 09:39:00,
2013-01-27 04:40:00,24.0,21.5,30.49,SW,219,0.0,0.0,90,0.00,,---,0.00,VWS V14.01,2013-01-27 09:40:00,
2013-01-27 04:44:00,23.8,21.3,30.49,SW,219,0.0,0.0,90,0.00,,---,0.00,VWS V14.01,2013-01-27 09:44:00,
2013-01-27 04:45:00,22.2,20.0,30.50,SW,219,0.0,0.0,91,0.00,,---,0.00,VWS V14.01,2013-01-27 09:45:00,
2013-01-27 04:49:00,23.6,21.1,30.49,SW,219,0.0,0.0,90,0.00,,---,0.00,VWS V14.01,2013-01-27 09:49:00,
2013-01-27 04:50:00,22.1,19.9,30.50,SW,219,0.0,0.0,91,0.00,,---,0.00,VWS V14.01,2013-01-27 09:50:00,
2013-01-27 04:54:00,23.3,20.8,30.49,SW,219,0.0,0.0,90,0.00,,---,0.00,VWS V14.01,2013-01-27 09:54:00,
2013-01-27 04:55:00,23.3,20.8,30.49,SW,219,0.0,0.0,90,0.00,,---,0.00,VWS V14.01,2013-01-27 09:55:00,
2013-01-27 04:59:00,23.1,20.6,30.49,SW,219,0.0,0.0,90,0.00,,---,0.00,VWS V14.01,2013-01-27 09:59:00,
2013-01-27 05:00:00,23.1,20.6,30.49,SW,219,0.0,0.0,90,0.00,,---,0.00,VWS V14.01,2013-01-27 10:00:00,
2013-01-27 05:04:00,22.9,20.4,30.49,SW,219,0.0,0.0,90,0.00,,---,0.00,VWS V14.01,2013-01-27 10:04:00,
2013-01-27 05:05:00,22.9,20.4,30.49,SW,219,0.0,0.0,90,0.00,,---,0.00,VWS V14.01,2013-01-27 10:05:00,
2013-01-27 05:10:00,22.8,20.3,30.49,SW,219,0.0,0.0,90,0.00,,---,0.00,VWS V14.01,2013-01-27 10:10:00,
2013-01-27 05:14:00,22.6,20.1,30.49,SW,219,0.0,0.0,90,0.00,,---,0.00,VWS V14.01,2013-01-27 10:14:00,
2013-01-27 05:15:00,22.6,20.1,30.49,SW,219,0.0,0.0,90,0.00,,---,0.00,VWS V14.01,2013-01-27 10:15:00,
2013-01-27 05:19:00,22.5,20.3,30.49,SW,219,0.0,0.0,91,0.00,,---,0.00,VWS V14.01,2013-01-27 10:19:00,
2013-01-27 05:20:00,22.5,20.3,30.49,SW,219,0.0,0.0,91,0.00,,---,0.00,VWS V14.01,2013-01-27 10:20:00,
2013-01-27 05:24:00,22.4,20.2,30.49,SW,219,0.0,0.0,91,0.00,,---,0.00,VWS V14.01,2013-01-27 10:24:00,
2013-01-27 05:25:00,22.4,20.2,30.49,SW,219,0.0,0.0,91,0.00,,---,0.00,VWS V14.01,2013-01-27 10:25:00,
2013-01-27 05:29:00,22.5,20.5,30.49,SW,219,0.0,0.0,92,0.00,,---,0.00,VWS V14.01,2013-01-27 10:29:00,
2013-01-27 05:30:00,22.5,20.5,30.49,SW,219,0.0,0.0,92,0.00,,---,0.00,VWS V14.01,2013-01-27 10:30:00,
2013-01-27 05:34:00,22.5,20.5,30.49,SW,219,0.0,0.0,92,0.00,,---,0.00,VWS V14.01,2013-01-27 10:34:00,
2013-01-27 05:35:00,22.5,20.5,30.49,SW,219,0.0,0.0,92,0.00,,---,0.00,VWS V14.01,2013-01-27 10:35:00,
2013-01-27 05:40:00,22.4,20.4,30.50,SW,219,0.0,0.0,92,0.00,,---,0.00,VWS V14.01,2013-01-27 10:40:00,
2013-01-27 05:44:00,22.2,20.0,30.50,SW,219,0.0,0.0,91,0.00,,---,0.00,VWS V14.01,2013-01-27 10:44:00,
2013-01-27 05:45:00,22.2,20.0,30.50,SW,219,0.0,0.0,91,0.00,,---,0.00,VWS V14.01,2013-01-27 10:45:00,
2013-01-27 05:49:00,22.1,19.9,30.50,SW,219,0.0,0.0,91,0.00,,---,0.00,VWS V14.01,2013-01-27 10:49:00,
2013-01-27 05:50:00,22.1,19.9,30.50,SW,219,0.0,0.0,91,0.00,,---,0.00,VWS V14.01,2013-01-27 10:50:00,
2013-01-27 05:54:00,22.0,19.8,30.50,SW,219,0.0,0.0,91,0.00,,---,0.00,VWS V14.01,2013-01-27 10:54:00,
2013-01-27 05:55:00,22.0,19.8,30.50,SW,219,0.0,0.0,91,0.00,,---,0.00,VWS V14.01,2013-01-27 10:55:00,
2013-01-27 05:59:00,21.8,19.6,30.50,SW,219,0.0,0.0,91,0.00,,---,0.00,VWS V14.01,2013-01-27 10:59:00,
2013-01-27 06:00:00,21.8,19.6,30.50,SW,219,0.0,0.0,91,0.00,,---,0.00,VWS V14.01,2013-01-27 11:00:00,
2013-01-27 06:05:00,21.7,19.5,30.50,SW,219,0.0,0.0,91,0.00,,---,0.00,VWS V14.01,2013-01-27 11:05:00,
2013-01-27 06:09:00,21.6,19.6,30.50,SW,219,0.0,0.0,92,0.00,,---,0.00,VWS V14.01,2013-01-27 11:09:00,
2013-01-27 06:10:00,21.6,19.6,30.50,SW,219,0.0,0.0,92,0.00,,---,0.00,VWS V14.01,2013-01-27 11:10:00,
2013-01-27 06:14:00,21.5,19.3,30.50,SW,219,0.0,0.0,91,0.00,,---,0.00,VWS V14.01,2013-01-27 11:14:00,
2013-01-27 06:15:00,21.5,19.3,30.50,SW,219,0.0,0.0,91,0.00,,---,0.00,VWS V14.01,2013-01-27 11:15:00,
2013-01-27 06:20:00,21.4,19.4,30.51,SW,219,0.0,0.0,92,0.00,,---,0.00,VWS V14.01,2013-01-27 11:20:00,
2013-01-27 06:24:00,21.2,19.0,30.51,SW,219,0.0,0.0,91,0.00,,---,0.00,VWS V14.01,2013-01-27 11:24:00,
2013-01-27 06:25:00,21.2,19.0,30.51,SW,219,0.0,0.0,91,0.00,,---,0.00,VWS V14.01,2013-01-27 11:25:00,
2013-01-27 06:30:00,21.1,18.9,30.51,SW,219,0.0,0.0,91,0.00,,---,0.00,VWS V14.01,2013-01-27 11:30:00,
2013-01-27 06:34:00,21.0,19.0,30.51,SW,219,0.0,0.0,92,0.00,,---,0.00,VWS V14.01,2013-01-27 11:34:00,
2013-01-27 06:35:00,20.2,18.2,30.55,SW,219,0.0,0.0,92,0.00,,---,0.00,VWS V14.01,2013-01-27 11:35:00,
2013-01-27 06:39:00,20.9,19.0,30.51,SW,219,0.0,0.0,92,0.00,,---,0.00,VWS V14.01,2013-01-27 11:39:00,
2013-01-27 06:40:00,20.9,19.0,30.51,SW,219,0.0,0.0,92,0.00,,---,0.00,VWS V14.01,2013-01-27 11:40:00,
2013-01-27 06:45:00,20.8,18.9,30.51,SW,219,0.0,0.0,92,0.00,,---,0.00,VWS V14.01,2013-01-27 11:45:00,
2013-01-27 06:49:00,20.7,18.8,30.52,SW,219,0.0,0.0,92,0.00,,---,0.00,VWS V14.01,2013-01-27 11:49:00,
2013-01-27 06:50:00,20.7,18.8,30.52,SW,219,0.0,0.0,92,0.00,,---,0.00,VWS V14.01,2013-01-27 11:50:00,
2013-01-27 06:54:00,20.4,18.2,30.52,SW,219,0.0,0.0,91,0.00,,---,0.00,VWS V14.01,2013-01-27 11:54:00,
2013-01-27 06:55:00,20.4,18.2,30.52,SW,219,0.0,0.0,91,0.00,,---,0.00,VWS V14.01,2013-01-27 11:55:00,
2013-01-27 06:59:00,20.3,18.4,30.53,SW,219,0.0,0.0,92,0.00,,---,0.00,VWS V14.01,2013-01-27 11:59:00,
2013-01-27 07:00:00,20.3,18.4,30.53,SW,219,0.0,0.0,92,0.00,,---,0.00,VWS V14.01,2013-01-27 12:00:00,
2013-01-27 07:04:00,20.3,18.4,30.53,SW,219,0.0,0.0,92,0.00,,---,0.00,VWS V14.01,2013-01-27 12:04:00,
2013-01-27 07:05:00,20.3,18.4,30.53,SW,219,0.0,0.0,92,0.00,,---,0.00,VWS V14.01,2013-01-27 12:05:00,
2013-01-27 07:10:00,20.4,18.7,30.53,SW,219,0.0,0.0,93,0.00,,---,0.00,VWS V14.01,2013-01-27 12:10:00,
2013-01-27 07:14:00,20.5,18.8,30.53,SW,219,0.0,0.0,93,0.00,,---,0.00,VWS V14.01,2013-01-27 12:14:00,
2013-01-27 07:15:00,20.5,18.8,30.57,SW,219,0.0,0.0,93,0.00,,---,0.00,VWS V14.01,2013-01-27 12:15:00,
2013-01-27 07:19:00,20.6,18.9,30.54,SW,219,0.0,0.0,93,0.00,,---,0.00,VWS V14.01,2013-01-27 12:19:00,
2013-01-27 07:20:00,20.6,18.9,30.54,SW,219,0.0,0.0,93,0.00,,---,0.00,VWS V14.01,2013-01-27 12:20:00,
2013-01-27 07:24:00,20.4,18.5,30.55,SW,219,0.0,0.0,92,0.00,,---,0.00,VWS V14.01,2013-01-27 12:24:00,
2013-01-27 07:25:00,20.4,18.5,30.55,SW,219,0.0,0.0,92,0.00,,---,0.00,VWS V14.01,2013-01-27 12:25:00,
2013-01-27 07:30:00,21.4,19.7,30.58,SW,219,0.0,0.0,93,0.00,,---,0.00,VWS V14.01,2013-01-27 12:30:00,
2013-01-27 07:34:00,20.2,18.2,30.55,SW,219,0.0,0.0,92,0.00,,---,0.00,VWS V14.01,2013-01-27 12:34:00,
2013-01-27 07:35:00,20.2,18.2,30.55,SW,219,0.0,0.0,92,0.00,,---,0.00,VWS V14.01,2013-01-27 12:35:00,
2013-01-27 07:39:00,20.0,18.0,30.55,SW,219,0.0,0.0,92,0.00,,---,0.00,VWS V14.01,2013-01-27 12:39:00,
2013-01-27 07:40:00,21.9,20.4,30.58,SW,219,0.0,0.0,94,0.00,,---,0.00,VWS V14.01,2013-01-27 12:40:00,
2013-01-27 07:44:00,20.1,18.1,30.56,SW,219,0.0,0.0,92,0.00,,---,0.00,VWS V14.01,2013-01-27 12:44:00,
2013-01-27 07:45:00,20.1,18.1,30.56,SW,219,0.0,0.0,92,0.00,,---,0.00,VWS V14.01,2013-01-27 12:45:00,
2013-01-27 07:50:00,22.6,21.1,30.59,SW,219,0.0,0.0,94,0.00,,---,0.00,VWS V14.01,2013-01-27 12:50:00,
2013-01-27 07:54:00,20.2,18.5,30.56,SW,219,0.0,0.0,93,0.00,,---,0.00,VWS V14.01,2013-01-27 12:54:00,
2013-01-27 07:55:00,23.0,21.5,30.59,SW,219,0.0,0.0,94,0.00,,---,0.00,VWS V14.01,2013-01-27 12:55:00,
2013-01-27 07:59:00,20.3,18.6,30.57,SW,219,0.0,0.0,93,0.00,,---,0.00,VWS V14.01,2013-01-27 12:59:00,
2013-01-27 08:00:00,20.3,18.6,30.57,SW,219,0.0,0.0,93,0.00,,---,0.00,VWS V14.01,2013-01-27 13:00:00,
2013-01-27 08:04:00,20.2,18.2,30.57,SW,219,0.0,0.0,92,0.00,,---,0.00,VWS V14.01,2013-01-27 13:04:00,
2013-01-27 08:05:00,24.3,23.1,30.59,SW,219,0.0,1.0,95,0.00,,---,0.00,VWS V14.01,2013-01-27 13:05:00,
2013-01-27 08:09:00,20.3,18.6,30.57,SW,219,0.0,0.0,93,0.00,,---,0.00,VWS V14.01,2013-01-27 13:09:00,
2013-01-27 08:10:00,24.7,23.5,30.59,SW,219,0.0,1.0,95,0.00,,---,0.00,VWS V14.01,2013-01-27 13:10:00,
2013-01-27 08:14:00,20.5,18.8,30.57,SW,219,0.0,0.0,93,0.00,,---,0.00,VWS V14.01,2013-01-27 13:14:00,
2013-01-27 08:15:00,20.5,18.8,30.57,SW,219,0.0,0.0,93,0.00,,---,0.00,VWS V14.01,2013-01-27 13:15:00,
2013-01-27 08:20:00,25.7,24.0,30.60,SW,219,0.0,2.0,93,0.00,,---,0.00,VWS V14.01,2013-01-27 13:20:00,
2013-01-27 08:24:00,21.1,19.4,30.58,SW,219,0.0,0.0,93,0.00,,---,0.00,VWS V14.01,2013-01-27 13:24:00,
2013-01-27 08:25:00,21.1,19.4,30.58,SW,219,0.0,0.0,93,0.00,,---,0.00,VWS V14.01,2013-01-27 13:25:00,
2013-01-27 08:29:00,21.4,19.7,30.58,SW,219,0.0,0.0,93,0.00,,---,0.00,VWS V14.01,2013-01-27 13:29:00,
2013-01-27 08:30:00,27.0,24.5,30.61,SW,220,1.0,2.0,90,0.00,,---,0.00,VWS V14.01,2013-01-27 13:30:00,
2013-01-27 08:34:00,21.6,20.1,30.58,SW,219,0.0,0.0,94,0.00,,---,0.00,VWS V14.01,2013-01-27 13:34:00,
2013-01-27 08:35:00,27.5,24.7,30.61,SW,220,1.0,2.0,89,0.00,,---,0.00,VWS V14.01,2013-01-27 13:35:00,
2013-01-27 08:40:00,21.9,20.4,30.58,SW,219,0.0,0.0,94,0.00,,---,0.00,VWS V14.01,2013-01-27 13:40:00,
2013-01-27 08:44:00,22.3,20.8,30.59,SW,219,0.0,0.0,94,0.00,,---,0.00,VWS V14.01,2013-01-27 13:44:00,
2013-01-27 08:45:00,22.3,20.8,30.59,SW,219,0.0,0.0,94,0.00,,---,0.00,VWS V14.01,2013-01-27 13:45:00,
2013-01-27 08:49:00,22.6,21.1,30.59,SW,219,0.0,0.0,94,0.00,,---,0.00,VWS V14.01,2013-01-27 13:49:00,
2013-01-27 08:50:00,22.6,21.1,30.59,SW,219,0.0,0.0,94,0.00,,---,0.00,VWS V14.01,2013-01-27 13:50:00,
2013-01-27 08:54:00,23.0,21.5,30.59,SW,219,0.0,0.0,94,0.00,,---,0.00,VWS V14.01,2013-01-27 13:54:00,
2013-01-27 08:55:00,23.0,21.5,30.59,SW,219,0.0,0.0,94,0.00,,---,0.00,VWS V14.01,2013-01-27 13:55:00,
2013-01-27 09:00:00,23.7,22.5,30.59,SW,219,0.0,0.0,95,0.00,,---,0.00,VWS V14.01,2013-01-27 14:00:00,
2013-01-27 09:04:00,24.3,23.1,30.59,SW,219,0.0,1.0,95,0.00,,---,0.00,VWS V14.01,2013-01-27 14:04:00,
2013-01-27 09:05:00,30.3,25.8,30.62,North,11,0.0,3.0,83,0.00,,---,0.00,VWS V14.01,2013-01-27 14:05:00,
2013-01-27 09:09:00,24.7,23.5,30.59,SW,219,0.0,1.0,95,0.00,,---,0.00,VWS V14.01,2013-01-27 14:09:00,
2013-01-27 09:10:00,30.7,25.6,30.62,NNE,15,1.0,4.0,81,0.00,,---,0.00,VWS V14.01,2013-01-27 14:10:00,
2013-01-27 09:14:00,25.2,23.7,30.60,SW,219,0.0,1.0,94,0.00,,---,0.00,VWS V14.01,2013-01-27 14:14:00,
2013-01-27 09:15:00,25.2,23.7,30.60,SW,219,0.0,1.0,94,0.00,,---,0.00,VWS V14.01,2013-01-27 14:15:00,
2013-01-27 09:20:00,25.7,24.0,30.60,SW,219,0.0,2.0,93,0.00,,---,0.00,VWS V14.01,2013-01-27 14:20:00,
2013-01-27 09:24:00,26.3,24.3,30.60,SW,219,0.0,1.0,92,0.00,,---,0.00,VWS V14.01,2013-01-27 14:24:00,
2013-01-27 09:25:00,26.3,24.3,30.60,SW,219,0.0,1.0,92,0.00,,---,0.00,VWS V14.01,2013-01-27 14:25:00,
2013-01-27 09:29:00,27.0,24.5,30.61,SW,220,1.0,2.0,90,0.00,,---,0.00,VWS V14.01,2013-01-27 14:29:00,
2013-01-27 09:30:00,27.0,24.5,30.61,SW,220,1.0,2.0,90,0.00,,---,0.00,VWS V14.01,2013-01-27 14:30:00,
2013-01-27 09:34:00,27.5,24.7,30.61,SW,220,1.0,2.0,89,0.00,,---,0.00,VWS V14.01,2013-01-27 14:34:00,
2013-01-27 09:35:00,27.5,24.7,30.61,SW,220,1.0,2.0,89,0.00,,---,0.00,VWS V14.01,2013-01-27 14:35:00,
2013-01-27 09:39:00,28.1,25.0,30.61,NW,306,3.0,3.0,88,0.00,,---,0.00,VWS V14.01,2013-01-27 14:39:00,
2013-01-27 09:40:00,28.1,25.0,30.61,NW,306,3.0,3.0,88,0.00,,---,0.00,VWS V14.01,2013-01-27 14:40:00,
2013-01-27 09:45:00,28.7,25.0,30.61,NNE,15,1.0,4.0,86,0.00,,---,0.00,VWS V14.01,2013-01-27 14:45:00,
2013-01-27 09:49:00,29.1,24.9,30.61,NNE,17,4.0,4.0,84,0.00,,---,0.00,VWS V14.01,2013-01-27 14:49:00,
2013-01-27 09:50:00,29.1,24.9,30.61,NNE,17,4.0,4.0,84,0.00,,---,0.00,VWS V14.01,2013-01-27 14:50:00,
2013-01-27 09:54:00,29.5,24.7,30.61,North,5,3.0,4.0,82,0.00,,---,0.00,VWS V14.01,2013-01-27 14:54:00,
2013-01-27 09:55:00,29.5,24.7,30.61,North,5,3.0,4.0,82,0.00,,---,0.00,VWS V14.01,2013-01-27 14:55:00,
2013-01-27 09:59:00,29.9,25.1,30.62,North,11,0.0,3.0,82,0.00,,---,0.00,VWS V14.01,2013-01-27 14:59:00,
2013-01-27 10:00:00,29.9,25.1,30.62,North,11,0.0,3.0,82,0.00,,---,0.00,VWS V14.01,2013-01-27 15:00:00,
2013-01-27 10:04:00,30.3,25.8,30.62,North,11,0.0,3.0,83,0.00,,---,0.00,VWS V14.01,2013-01-27 15:04:00,
2013-01-27 10:05:00,30.3,25.8,30.62,North,11,0.0,3.0,83,0.00,,---,0.00,VWS V14.01,2013-01-27 15:05:00,
2013-01-27 10:09:00,30.7,25.6,30.62,NNE,15,1.0,4.0,81,0.00,,---,0.00,VWS V14.01,2013-01-27 15:09:00,
2013-01-27 10:10:00,30.7,25.6,30.62,NNE,15,1.0,4.0,81,0.00,,---,0.00,VWS V14.01,2013-01-27 15:10:00,
2013-01-27 10:15:00,31.0,25.6,30.62,NNE,17,0.0,3.0,80,0.00,,---,0.00,VWS V14.01,2013-01-27 15:15:00,
2013-01-27 10:19:00,31.4,25.6,30.62,NNE,17,2.0,2.0,79,0.00,,---,0.00,VWS V14.01,2013-01-27 15:19:00,
2013-01-27 10:20:00,31.4,25.6,30.62,NNE,17,2.0,2.0,79,0.00,,---,0.00,VWS V14.01,2013-01-27 15:20:00,
2013-01-27 10:25:00,31.6,25.9,30.62,NNE,17,0.0,3.0,79,0.00,,---,0.00,VWS V14.01,2013-01-27 15:25:00,
2013-01-27 10:29:00,32.1,26.0,30.62,NNE,23,0.0,2.0,78,0.00,,---,0.00,VWS V14.01,2013-01-27 15:29:00,
2013-01-27 10:30:00,32.1,26.0,30.62,NNE,23,0.0,2.0,78,0.00,,---,0.00,VWS V14.01,2013-01-27 15:30:00,
2013-01-27 10:34:00,32.6,26.5,30.62,NNE,22,0.0,3.0,78,0.00,,---,0.00,VWS V14.01,2013-01-27 15:34:00,
2013-01-27 10:35:00,32.6,26.5,30.62,NNE,22,0.0,3.0,78,0.00,,---,0.00,VWS V14.01,2013-01-27 15:35:00,
2013-01-27 10:40:00,36.9,28.4,30.61,WSW,251,2.0,4.0,71,0.01,,---,0.01,VWS V14.01,2013-01-27 15:40:00,
2013-01-27 10:44:00,33.2,26.5,30.61,ESE,114,0.0,5.0,76,0.00,,---,0.00,VWS V14.01,2013-01-27 15:44:00,
2013-01-27 10:45:00,33.2,26.5,30.61,ESE,114,0.0,5.0,76,0.00,,---,0.00,VWS V14.01,2013-01-27 15:45:00,
2013-01-27 10:49:00,33.6,27.2,30.61,NW,312,2.0,2.0,77,0.00,,---,0.00,VWS V14.01,2013-01-27 15:49:00,
2013-01-27 10:50:00,33.6,27.2,30.61,NW,312,2.0,2.0,77,0.00,,---,0.00,VWS V14.01,2013-01-27 15:50:00,
2013-01-27 10:54:00,33.9,27.1,30.61,NNW,333,2.0,3.0,76,0.00,,---,0.00,VWS V14.01,2013-01-27 15:54:00,
2013-01-27 10:55:00,33.9,27.1,30.61,NNW,333,2.0,3.0,76,0.00,,---,0.00,VWS V14.01,2013-01-27 15:55:00,
2013-01-27 10:59:00,34.3,27.5,30.61,NNW,336,0.0,2.0,76,0.00,,---,0.00,VWS V14.01,2013-01-27 15:59:00,
2013-01-27 11:00:00,34.3,27.5,30.61,NNW,336,0.0,2.0,76,0.00,,---,0.00,VWS V14.01,2013-01-27 16:00:00,
2013-01-27 11:04:00,34.9,27.8,30.61,SSW,211,4.0,5.0,75,0.00,,---,0.00,VWS V14.01,2013-01-27 16:04:00,
2013-01-27 11:05:00,34.9,27.8,30.61,SSW,211,4.0,5.0,75,0.00,,---,0.00,VWS V14.01,2013-01-27 16:05:00,
2013-01-27 11:09:00,35.3,27.9,30.62,East,92,0.0,4.0,74,0.00,,---,0.00,VWS V14.01,2013-01-27 16:09:00,
2013-01-27 11:10:00,35.3,27.9,30.62,East,92,0.0,4.0,74,0.00,,---,0.00,VWS V14.01,2013-01-27 16:10:00,
2013-01-27 11:14:00,35.5,27.7,30.61,NNW,333,0.0,5.0,73,0.00,,---,0.00,VWS V14.01,2013-01-27 16:14:00,
2013-01-27 11:15:00,37.9,28.3,30.58,SW,220,1.0,4.0,68,0.01,,---,0.01,VWS V14.01,2013-01-27 16:15:00,
2013-01-27 11:19:00,35.8,28.3,30.62,NNW,330,0.0,2.0,74,0.00,,---,0.00,VWS V14.01,2013-01-27 16:19:00,
2013-01-27 11:20:00,35.8,28.3,30.62,NNW,330,0.0,2.0,74,0.00,,---,0.00,VWS V14.01,2013-01-27 16:20:00,
2013-01-27 11:24:00,36.0,27.9,30.61,West,276,2.0,5.0,72,0.00,,---,0.00,VWS V14.01,2013-01-27 16:24:00,
2013-01-27 11:25:00,36.0,27.9,30.61,West,276,2.0,5.0,72,0.00,,---,0.00,VWS V14.01,2013-01-27 16:25:00,
2013-01-27 11:29:00,36.2,28.1,30.61,NW,309,1.0,3.0,72,0.00,,---,0.00,VWS V14.01,2013-01-27 16:29:00,
2013-01-27 11:30:00,36.2,28.1,30.61,NW,309,1.0,3.0,72,0.00,,---,0.00,VWS V14.01,2013-01-27 16:30:00,
2013-01-27 11:34:00,36.6,28.8,30.61,West,271,2.0,3.0,73,0.01,,---,0.01,VWS V14.01,2013-01-27 16:34:00,
2013-01-27 11:35:00,36.6,28.8,30.61,West,271,2.0,3.0,73,0.01,,---,0.01,VWS V14.01,2013-01-27 16:35:00,
2013-01-27 11:40:00,36.9,28.4,30.61,WSW,251,2.0,4.0,71,0.01,,---,0.01,VWS V14.01,2013-01-27 16:40:00,
2013-01-27 11:44:00,37.3,28.8,30.61,West,271,0.0,4.0,71,0.01,,---,0.01,VWS V14.01,2013-01-27 16:44:00,
2013-01-27 11:45:00,37.3,28.8,30.61,West,271,0.0,4.0,71,0.01,,---,0.01,VWS V14.01,2013-01-27 16:45:00,
2013-01-27 11:49:00,37.3,28.1,30.60,SW,214,0.0,6.0,69,0.01,,---,0.01,VWS V14.01,2013-01-27 16:49:00,
2013-01-27 11:50:00,37.3,28.1,30.60,SW,214,0.0,6.0,69,0.01,,---,0.01,VWS V14.01,2013-01-27 16:50:00,
2013-01-27 11:54:00,37.3,28.1,30.60,ESE,110,0.0,2.0,69,0.01,,---,0.01,VWS V14.01,2013-01-27 16:54:00,
2013-01-27 11:55:00,37.3,28.1,30.60,ESE,110,0.0,2.0,69,0.01,,---,0.01,VWS V14.01,2013-01-27 16:55:00,
2013-01-27 11:59:00,37.4,28.5,30.60,West,267,0.0,3.0,70,0.01,,---,0.01,VWS V14.01,2013-01-27 16:59:00,
2013-01-27 12:00:00,37.4,28.5,30.60,West,267,0.0,3.0,70,0.01,,---,0.01,VWS V14.01,2013-01-27 17:00:00,
2013-01-27 12:05:00,37.7,28.8,30.60,West,267,0.0,2.0,70,0.01,,---,0.01,VWS V14.01,2013-01-27 17:05:00,
2013-01-27 12:09:00,38.1,29.2,30.59,West,265,3.0,8.0,70,0.01,,---,0.01,VWS V14.01,2013-01-27 17:09:00,
2013-01-27 12:10:00,38.1,29.2,30.59,West,265,3.0,8.0,70,0.01,,---,0.01,VWS V14.01,2013-01-27 17:10:00,
2013-01-27 12:15:00,37.9,28.3,30.58,SW,220,1.0,4.0,68,0.01,,---,0.01,VWS V14.01,2013-01-27 17:15:00,
2013-01-27 12:19:00,38.1,28.5,30.58,SW,220,0.0,2.0,68,0.01,,---,0.01,VWS V14.01,2013-01-27 17:19:00,
2013-01-27 12:20:00,38.1,28.5,30.58,SW,220,0.0,2.0,68,0.01,,---,0.01,VWS V14.01,2013-01-27 17:20:00,
2013-01-27 12:24:00,38.6,29.3,30.57,SW,220,1.0,1.0,69,0.01,,---,0.01,VWS V14.01,2013-01-27 17:24:00,
2013-01-27 12:25:00,38.6,29.3,30.57,SW,220,1.0,1.0,69,0.01,,---,0.01,VWS V14.01,2013-01-27 17:25:00,
2013-01-27 12:29:00,39.3,29.6,30.56,South,185,1.0,2.0,68,0.01,,---,0.01,VWS V14.01,2013-01-27 17:29:00,
2013-01-27 12:30:00,39.3,29.6,30.56,South,185,1.0,2.0,68,0.01,,---,0.01,VWS V14.01,2013-01-27 17:30:00,
2013-01-27 12:34:00,39.7,29.3,30.56,North,349,0.0,2.0,66,0.01,,---,0.01,VWS V14.01,2013-01-27 17:34:00,
2013-01-27 12:35:00,39.7,29.3,30.56,North,349,0.0,2.0,66,0.01,,---,0.01,VWS V14.01,2013-01-27 17:35:00,
2013-01-27 12:39:00,39.4,28.6,30.56,NNE,30,0.0,2.0,65,0.00,,---,0.01,VWS V14.01,2013-01-27 17:39:00,
2013-01-27 12:40:00,39.4,28.6,30.56,NNE,30,0.0,2.0,65,0.00,,---,0.01,VWS V14.01,2013-01-27 17:40:00,
2013-01-27 12:45:00,39.5,29.1,30.56,ENE,62,0.0,2.0,66,0.00,,---,0.01,VWS V14.01,2013-01-27 17:45:00,
2013-01-27 12:49:00,39.9,29.5,30.55,NE,53,0.0,3.0,66,0.00,,---,0.01,VWS V14.01,2013-01-27 17:49:00,
2013-01-27 12:50:00,39.9,29.5,30.55,NE,53,0.0,3.0,66,0.00,,---,0.01,VWS V14.01,2013-01-27 17:50:00,
2013-01-27 12:55:00,39.8,29.0,30.56,WSW,242,4.0,8.0,65,0.00,,---,0.01,VWS V14.01,2013-01-27 17:55:00,
2013-01-27 12:59:00,39.1,28.0,30.57,SSW,212,4.0,8.0,64,0.00,,---,0.01,VWS V14.01,2013-01-27 17:59:00,
2013-01-27 13:00:00,39.1,28.0,30.57,SSW,212,4.0,8.0,64,0.00,,---,0.01,VWS V14.01,2013-01-27 18:00:00,
2013-01-27 13:05:00,38.9,28.5,30.57,SW,223,0.0,4.0,66,0.00,,---,0.01,VWS V14.01,2013-01-27 18:05:00,
2013-01-27 13:09:00,39.2,28.8,30.57,SW,223,0.0,2.0,66,0.00,,---,0.01,VWS V14.01,2013-01-27 18:09:00,
2013-01-27 13:10:00,39.2,28.8,30.57,SW,223,0.0,2.0,66,0.00,,---,0.01,VWS V14.01,2013-01-27 18:10:00,
2013-01-27 13:15:00,39.9,29.5,30.57,SW,236,2.0,2.0,66,0.00,,---,0.01,VWS V14.01,2013-01-27 18:15:00,
2013-01-27 13:19:00,39.8,28.6,30.56,West,273,1.0,6.0,64,0.00,,---,0.01,VWS V14.01,2013-01-27 18:19:00,
2013-01-27 13:20:00,39.8,28.6,30.56,West,273,1.0,6.0,64,0.00,,---,0.01,VWS V14.01,2013-01-27 18:20:00,
2013-01-27 13:24:00,39.6,28.4,30.55,SW,236,2.0,4.0,64,0.00,,---,0.01,VWS V14.01,2013-01-27 18:24:00,
2013-01-27 13:25:00,39.6,28.4,30.55,SW,236,2.0,4.0,64,0.00,,---,0.01,VWS V14.01,2013-01-27 18:25:00,
2013-01-27 13:29:00,39.9,29.1,30.55,West,265,1.0,3.0,65,0.00,,---,0.01,VWS V14.01,2013-01-27 18:29:00,
2013-01-27 13:30:00,39.9,29.1,30.55,West,265,1.0,3.0,65,0.00,,---,0.01,VWS V14.01,2013-01-27 18:30:00,
2013-01-27 13:34:00,40.2,29.0,30.55,West,265,0.0,1.0,64,0.00,,---,0.01,VWS V14.01,2013-01-27 18:34:00,
2013-01-27 13:35:00,40.2,29.0,30.55,West,265,0.0,1.0,64,0.00,,---,0.01,VWS V14.01,2013-01-27 18:35:00,
2013-01-27 13:39:00,40.6,29.0,30.55,West,274,1.0,4.0,63,0.00,,---,0.01,VWS V14.01,2013-01-27 18:39:00,
2013-01-27 13:40:00,40.6,29.0,30.55,West,274,1.0,4.0,63,0.00,,---,0.01,VWS V14.01,2013-01-27 18:40:00,
2013-01-27 13:44:00,41.2,30.0,30.55,South,181,2.0,4.0,64,0.00,,---,0.01,VWS V14.01,2013-01-27 18:44:00,
2013-01-27 13:45:00,41.2,30.0,30.55,South,181,2.0,4.0,64,0.00,,---,0.01,VWS V14.01,2013-01-27 18:45:00,
2013-01-27 13:49:00,41.4,29.0,30.55,WSW,242,2.0,3.0,61,0.00,,---,0.01,VWS V14.01,2013-01-27 18:49:00,
2013-01-27 13:50:00,41.4,29.0,30.55,WSW,242,2.0,3.0,61,0.00,,---,0.01,VWS V14.01,2013-01-27 18:50:00,
2013-01-27 13:54:00,40.4,28.4,30.55,West,264,2.0,4.0,62,0.00,,---,0.01,VWS V14.01,2013-01-27 18:54:00,
2013-01-27 13:55:00,40.4,28.4,30.55,West,264,2.0,4.0,62,0.00,,---,0.01,VWS V14.01,2013-01-27 18:55:00,
2013-01-27 14:00:00,40.0,28.0,30.54,WSW,255,1.0,3.0,62,0.00,,---,0.01,VWS V14.01,2013-01-27 19:00:00,
2013-01-27 14:04:00,40.0,28.4,30.54,West,261,0.0,3.0,63,0.00,,---,0.01,VWS V14.01,2013-01-27 19:04:00,
2013-01-27 14:05:00,40.0,28.4,30.54,West,261,0.0,3.0,63,0.00,,---,0.01,VWS V14.01,2013-01-27 19:05:00,
2013-01-27 14:10:00,41.7,28.9,30.53,SSW,199,0.0,2.0,60,0.00,,---,0.01,VWS V14.01,2013-01-27 19:10:00,
2013-01-27 14:14:00,40.8,28.8,30.54,SW,233,1.0,5.0,62,0.00,,---,0.01,VWS V14.01,2013-01-27 19:14:00,
2013-01-27 14:15:00,40.8,28.8,30.54,SW,233,1.0,5.0,62,0.00,,---,0.01,VWS V14.01,2013-01-27 19:15:00,
2013-01-27 14:19:00,41.2,29.2,30.54,SW,233,0.0,1.0,62,0.00,,---,0.01,VWS V14.01,2013-01-27 19:19:00,
2013-01-27 14:20:00,41.2,29.2,30.54,SW,233,0.0,1.0,62,0.00,,---,0.01,VWS V14.01,2013-01-27 19:20:00,
2013-01-27 14:24:00,41.5,28.7,30.54,SW,234,0.0,2.0,60,0.00,,---,0.01,VWS V14.01,2013-01-27 19:24:00,
2013-01-27 14:25:00,42.1,29.2,30.52,ESE,121,0.0,2.0,60,0.00,,---,0.01,VWS V14.01,2013-01-27 19:25:00,
2013-01-27 14:30:00,41.7,29.3,30.54,West,261,2.0,5.0,61,0.00,,---,0.01,VWS V14.01,2013-01-27 19:30:00,
2013-01-27 14:34:00,41.7,28.9,30.53,SW,215,0.0,4.0,60,0.00,,---,0.01,VWS V14.01,2013-01-27 19:34:00,
2013-01-27 14:35:00,41.7,28.9,30.53,SW,215,0.0,4.0,60,0.00,,---,0.01,VWS V14.01,2013-01-27 19:35:00,
2013-01-27 14:39:00,41.8,29.4,30.53,SW,216,1.0,3.0,61,0.00,,---,0.01,VWS V14.01,2013-01-27 19:39:00,
2013-01-27 14:40:00,41.8,29.4,30.53,SW,216,1.0,3.0,61,0.00,,---,0.01,VWS V14.01,2013-01-27 19:40:00,
2013-01-27 14:44:00,42.0,29.1,30.53,SW,216,1.0,2.0,60,0.00,,---,0.01,VWS V14.01,2013-01-27 19:44:00,
2013-01-27 14:45:00,42.0,29.1,30.53,SW,216,1.0,2.0,60,0.00,,---,0.01,VWS V14.01,2013-01-27 19:45:00,
2013-01-27 14:49:00,41.8,28.5,30.53,SSW,198,1.0,4.0,59,0.00,,---,0.01,VWS V14.01,2013-01-27 19:49:00,
2013-01-27 14:50:00,41.8,28.5,30.53,SSW,198,1.0,4.0,59,0.00,,---,0.01,VWS V14.01,2013-01-27 19:50:00,
2013-01-27 14:54:00,41.5,28.7,30.54,SSW,198,1.0,3.0,60,0.00,,---,0.01,VWS V14.01,2013-01-27 19:54:00,
2013-01-27 14:55:00,41.5,28.7,30.54,SSW,198,1.0,3.0,60,0.00,,---,0.01,VWS V14.01,2013-01-27 19:55:00,
2013-01-27 14:59:00,41.4,29.0,30.54,South,189,1.0,3.0,61,0.00,,---,0.01,VWS V14.01,2013-01-27 19:59:00,
2013-01-27 15:00:00,41.4,29.0,30.54,South,189,1.0,3.0,61,0.00,,---,0.01,VWS V14.01,2013-01-27 20:00:00,
2013-01-27 15:05:00,41.5,28.7,30.54,SSW,199,0.0,3.0,60,0.00,,---,0.01,VWS V14.01,2013-01-27 20:05:00,
2013-01-27 15:09:00,41.7,28.9,30.53,SSW,199,0.0,2.0,60,0.00,,---,0.01,VWS V14.01,2013-01-27 20:09:00,
2013-01-27 15:10:00,41.7,28.9,30.53,SSW,199,0.0,2.0,60,0.00,,---,0.01,VWS V14.01,2013-01-27 20:10:00,
2013-01-27 15:15:00,42.0,29.1,30.53,ENE,71,3.0,4.0,60,0.00,,---,0.01,VWS V14.01,2013-01-27 20:15:00,
2013-01-27 15:19:00,42.2,28.9,30.52,ESE,121,0.0,4.0,59,0.00,,---,0.01,VWS V14.01,2013-01-27 20:19:00,
2013-01-27 15:20:00,42.2,28.9,30.52,ESE,121,0.0,4.0,59,0.00,,---,0.01,VWS V14.01,2013-01-27 20:20:00,
2013-01-27 15:24:00,42.1,29.2,30.52,ESE,121,0.0,2.0,60,0.00,,---,0.01,VWS V14.01,2013-01-27 20:24:00,
2013-01-27 15:25:00,42.1,29.2,30.52,ESE,121,0.0,2.0,60,0.00,,---,0.01,VWS V14.01,2013-01-27 20:25:00,
2013-01-27 15:29:00,41.9,28.6,30.52,SSW,206,1.0,4.0,59,0.00,,---,0.01,VWS V14.01,2013-01-27 20:29:00,
2013-01-27 15:30:00,41.9,28.6,30.52,SSW,206,1.0,4.0,59,0.00,,---,0.01,VWS V14.01,2013-01-27 20:30:00,
2013-01-27 15:34:00,41.6,28.8,30.52,SSW,205,0.0,3.0,60,0.00,,---,0.01,VWS V14.01,2013-01-27 20:34:00,
2013-01-27 15:35:00,41.6,28.8,30.52,SSW,205,0.0,3.0,60,0.00,,---,0.01,VWS V14.01,2013-01-27 20:35:00,
2013-01-27 15:39:00,41.6,28.8,30.52,SSW,205,0.0,0.0,60,0.00,,---,0.01,VWS V14.01,2013-01-27 20:39:00,
2013-01-27 15:40:00,41.6,28.8,30.52,SSW,205,0.0,0.0,60,0.00,,---,0.01,VWS V14.01,2013-01-27 20:40:00,
2013-01-27 15:44:00,41.5,28.7,30.53,SSW,205,0.0,1.0,60,0.00,,---,0.01,VWS V14.01,2013-01-27 20:44:00,
2013-01-27 15:45:00,41.5,28.7,30.53,SSW,205,0.0,1.0,60,0.00,,---,0.01,VWS V14.01,2013-01-27 20:45:00,
2013-01-27 15:50:00,41.5,29.5,30.53,SSW,205,0.0,1.0,62,0.00,,---,0.01,VWS V14.01,2013-01-27 20:50:00,
2013-01-27 15:54:00,41.4,29.0,30.53,SSW,205,2.0,2.0,61,0.00,,---,0.01,VWS V14.01,2013-01-27 20:54:00,
2013-01-27 15:55:00,41.4,29.0,30.53,SSW,205,2.0,2.0,61,0.00,,---,0.01,VWS V14.01,2013-01-27 20:55:00,
2013-01-27 16:00:00,41.2,28.8,30.53,West,263,0.0,3.0,61,0.00,,---,0.01,VWS V14.01,2013-01-27 21:00:00,
2013-01-27 16:04:00,41.1,28.7,30.53,West,263,0.0,2.0,61,0.00,,---,0.01,VWS V14.01,2013-01-27 21:04:00,
2013-01-27 16:05:00,41.1,28.7,30.53,West,263,0.0,2.0,61,0.00,,---,0.01,VWS V14.01,2013-01-27 21:05:00,
2013-01-27 16:09:00,41.1,29.1,30.53,West,263,0.0,1.0,62,0.00,,---,0.01,VWS V14.01,2013-01-27 21:09:00,
2013-01-27 16:10:00,41.1,29.1,30.53,West,263,0.0,1.0,62,0.00,,---,0.01,VWS V14.01,2013-01-27 21:10:00,
2013-01-27 16:14:00,41.1,29.1,30.53,West,263,0.0,1.0,62,0.00,,---,0.01,VWS V14.01,2013-01-27 21:14:00,
2013-01-27 16:15:00,41.1,29.1,30.53,West,263,0.0,1.0,62,0.00,,---,0.01,VWS V14.01,2013-01-27 21:15:00,
2013-01-27 16:19:00,41.1,29.1,30.53,West,263,1.0,2.0,62,0.00,,---,0.01,VWS V14.01,2013-01-27 21:19:00,
2013-01-27 16:20:00,41.1,29.1,30.53,West,263,1.0,2.0,62,0.00,,---,0.01,VWS V14.01,2013-01-27 21:20:00,
2013-01-27 16:24:00,41.0,29.4,30.53,West,263,0.0,1.0,63,0.00,,---,0.01,VWS V14.01,2013-01-27 21:24:00,
2013-01-27 16:25:00,41.0,29.4,30.53,West,263,0.0,1.0,63,0.00,,---,0.01,VWS V14.01,2013-01-27 21:25:00,
2013-01-27 16:30:00,41.0,29.8,30.53,West,263,0.0,0.0,64,0.00,,---,0.01,VWS V14.01,2013-01-27 21:30:00,
2013-01-27 16:34:00,40.9,28.9,30.53,West,263,0.0,0.0,62,0.00,,---,0.01,VWS V14.01,2013-01-27 21:34:00,
2013-01-27 16:35:00,40.9,28.9,30.53,West,263,0.0,0.0,62,0.00,,---,0.01,VWS V14.01,2013-01-27 21:35:00,
2013-01-27 16:40:00,40.9,29.3,30.53,West,263,0.0,0.0,63,0.00,,---,0.01,VWS V14.01,2013-01-27 21:40:00,
2013-01-27 16:44:00,40.8,29.6,30.54,West,263,0.0,0.0,64,0.00,,---,0.01,VWS V14.01,2013-01-27 21:44:00,
2013-01-27 16:45:00,40.8,29.6,30.54,West,263,0.0,0.0,64,0.00,,---,0.01,VWS V14.01,2013-01-27 21:45:00,
2013-01-27 16:49:00,40.8,29.6,30.53,West,263,0.0,0.0,64,0.00,,---,0.01,VWS V14.01,2013-01-27 21:49:00,
2013-01-27 16:50:00,40.8,29.6,30.53,West,263,0.0,0.0,64,0.00,,---,0.01,VWS V14.01,2013-01-27 21:50:00,
2013-01-27 16:54:00,40.7,29.5,30.54,West,263,0.0,0.0,64,0.00,,---,0.01,VWS V14.01,2013-01-27 21:54:00,
2013-01-27 16:55:00,40.7,29.5,30.54,West,263,0.0,0.0,64,0.00,,---,0.01,VWS V14.01,2013-01-27 21:55:00,
2013-01-27 17:00:00,40.7,29.5,30.54,West,263,0.0,0.0,64,0.00,,---,0.01,VWS V14.01,2013-01-27 22:00:00,
2013-01-27 17:04:00,40.5,28.9,30.53,West,263,0.0,0.0,63,0.00,,---,0.01,VWS V14.01,2013-01-27 22:04:00,
2013-01-27 17:05:00,40.5,28.9,30.53,West,263,0.0,0.0,63,0.00,,---,0.01,VWS V14.01,2013-01-27 22:05:00,
2013-01-27 17:09:00,40.4,29.2,30.53,West,263,0.0,0.0,64,0.00,,---,0.01,VWS V14.01,2013-01-27 22:09:00,
2013-01-27 17:10:00,40.4,29.2,30.53,West,263,0.0,0.0,64,0.00,,---,0.01,VWS V14.01,2013-01-27 22:10:00,
2013-01-27 17:14:00,40.3,29.5,30.54,West,263,0.0,0.0,65,0.00,,---,0.01,VWS V14.01,2013-01-27 22:14:00,
2013-01-27 17:15:00,40.3,29.5,30.54,West,263,0.0,0.0,65,0.00,,---,0.01,VWS V14.01,2013-01-27 22:15:00,
2013-01-27 17:20:00,38.6,29.3,30.55,West,263,0.0,0.0,69,0.00,,---,0.01,VWS V14.01,2013-01-27 22:20:00,
2013-01-27 17:24:00,40.0,29.6,30.54,West,263,0.0,0.0,66,0.00,,---,0.01,VWS V14.01,2013-01-27 22:24:00,
2013-01-27 17:25:00,38.5,29.2,30.55,West,263,0.0,0.0,69,0.00,,---,0.01,VWS V14.01,2013-01-27 22:25:00,
2013-01-27 17:29:00,39.8,29.0,30.53,West,263,0.0,0.0,65,0.00,,---,0.01,VWS V14.01,2013-01-27 22:29:00,
2013-01-27 17:30:00,39.8,29.0,30.53,West,263,0.0,0.0,65,0.00,,---,0.01,VWS V14.01,2013-01-27 22:30:00,
2013-01-27 17:35:00,39.7,28.9,30.53,West,263,0.0,0.0,65,0.00,,---,0.01,VWS V14.01,2013-01-27 22:35:00,
2013-01-27 17:39:00,39.6,28.8,30.53,West,263,0.0,0.0,65,0.00,,---,0.01,VWS V14.01,2013-01-27 22:39:00,
2013-01-27 17:40:00,38.0,29.1,30.55,West,263,0.0,0.0,70,0.00,,---,0.01,VWS V14.01,2013-01-27 22:40:00,
2013-01-27 17:44:00,39.5,28.7,30.54,West,263,0.0,0.0,65,0.00,,---,0.01,VWS V14.01,2013-01-27 22:44:00,
2013-01-27 17:45:00,39.5,28.7,30.54,West,263,0.0,0.0,65,0.00,,---,0.01,VWS V14.01,2013-01-27 22:45:00,
2013-01-27 17:49:00,39.5,29.8,30.54,West,263,0.0,0.0,68,0.00,,---,0.01,VWS V14.01,2013-01-27 22:49:00,
2013-01-27 17:50:00,39.5,29.8,30.54,West,263,0.0,0.0,68,0.00,,---,0.01,VWS V14.01,2013-01-27 22:50:00,
2013-01-27 17:54:00,39.4,29.7,30.54,West,263,0.0,0.0,68,0.00,,---,0.01,VWS V14.01,2013-01-27 22:54:00,
2013-01-27 17:55:00,39.4,29.7,30.54,West,263,0.0,0.0,68,0.00,,---,0.01,VWS V14.01,2013-01-27 22:55:00,
2013-01-27 17:59:00,39.2,29.2,30.54,West,263,0.0,0.0,67,0.00,,---,0.01,VWS V14.01,2013-01-27 22:59:00,
2013-01-27 18:00:00,39.2,29.2,30.54,West,263,0.0,0.0,67,0.00,,---,0.01,VWS V14.01,2013-01-27 23:00:00,
2013-01-27 18:04:00,39.1,28.7,30.54,West,263,0.0,0.0,66,0.00,,---,0.01,VWS V14.01,2013-01-27 23:04:00,
2013-01-27 18:05:00,39.1,28.7,30.54,West,263,0.0,0.0,66,0.00,,---,0.01,VWS V14.01,2013-01-27 23:05:00,
2013-01-27 18:10:00,39.0,29.0,30.54,West,263,0.0,0.0,67,0.00,,---,0.01,VWS V14.01,2013-01-27 23:10:00,
2013-01-27 18:14:00,38.8,28.8,30.54,West,263,0.0,0.0,67,0.00,,---,0.01,VWS V14.01,2013-01-27 23:14:00,
2013-01-27 18:15:00,38.8,28.8,30.54,West,263,0.0,0.0,67,0.00,,---,0.01,VWS V14.01,2013-01-27 23:15:00,
2013-01-27 18:19:00,38.6,29.3,30.55,West,263,0.0,0.0,69,0.00,,---,0.01,VWS V14.01,2013-01-27 23:19:00,
2013-01-27 18:20:00,38.6,29.3,30.55,West,263,0.0,0.0,69,0.00,,---,0.01,VWS V14.01,2013-01-27 23:20:00,
2013-01-27 18:25:00,38.5,29.2,30.55,West,263,0.0,0.0,69,0.00,,---,0.01,VWS V14.01,2013-01-27 23:25:00,
2013-01-27 18:29:00,38.3,29.0,30.55,West,263,0.0,0.0,69,0.00,,---,0.01,VWS V14.01,2013-01-27 23:29:00,
2013-01-27 18:30:00,38.3,29.0,30.55,West,263,0.0,0.0,69,0.00,,---,0.01,VWS V14.01,2013-01-27 23:30:00,
2013-01-27 18:34:00,38.2,29.6,30.55,West,263,0.0,0.0,71,0.00,,---,0.01,VWS V14.01,2013-01-27 23:34:00,
2013-01-27 18:35:00,38.2,29.6,30.55,West,263,0.0,0.0,71,0.00,,---,0.01,VWS V14.01,2013-01-27 23:35:00,
2013-01-27 18:39:00,38.0,29.1,30.55,West,263,0.0,0.0,70,0.00,,---,0.01,VWS V14.01,2013-01-27 23:39:00,
2013-01-27 18:40:00,38.0,29.1,30.55,West,263,0.0,0.0,70,0.00,,---,0.01,VWS V14.01,2013-01-27 23:40:00,
2013-01-27 18:44:00,37.9,29.0,30.55,West,263,0.0,0.0,70,0.00,,---,0.01,VWS V14.01,2013-01-27 23:44:00,
2013-01-27 18:45:00,37.9,29.0,30.55,West,263,0.0,0.0,70,0.00,,---,0.01,VWS V14.01,2013-01-27 23:45:00,
2013-01-27 18:50:00,37.8,29.2,30.55,West,263,0.0,0.0,71,0.00,,---,0.01,VWS V14.01,2013-01-27 23:50:00,
2013-01-27 18:54:00,37.7,28.8,30.54,West,263,0.0,0.0,70,0.00,,---,0.01,VWS V14.01,2013-01-27 23:54:00,
2013-01-27 18:55:00,37.7,28.8,30.54,West,263,0.0,0.0,70,0.00,,---,0.01,VWS V14.01,2013-01-27 23:55:00,
2013-01-27 19:00:00,37.6,28.7,30.54,West,263,0.0,0.0,70,0.00,,---,0.01,VWS V14.01,2013-01-28 00:00:00,
2013-01-27 19:04:00,37.6,29.4,30.54,West,263,0.0,0.0,72,0.00,,---,0.01,VWS V14.01,2013-01-28 00:04:00,
2013-01-27 19:05:00,37.6,29.4,30.54,West,263,0.0,0.0,72,0.00,,---,0.01,VWS V14.01,2013-01-28 00:05:00,
2013-01-27 19:10:00,37.5,30.0,30.54,West,263,0.0,0.0,74,0.00,,---,0.01,VWS V14.01,2013-01-28 00:10:00,
2013-01-27 19:14:00,37.4,29.5,30.54,West,263,0.0,0.0,73,0.00,,---,0.01,VWS V14.01,2013-01-28 00:14:00,
2013-01-27 19:15:00,37.4,29.5,30.54,West,263,0.0,0.0,73,0.00,,---,0.01,VWS V14.01,2013-01-28 00:15:00,
2013-01-27 19:19:00,37.2,29.4,30.54,West,263,0.0,0.0,73,0.00,,---,0.01,VWS V14.01,2013-01-28 00:19:00,
2013-01-27 19:20:00,37.2,29.4,30.54,West,263,0.0,0.0,73,0.00,,---,0.01,VWS V14.01,2013-01-28 00:20:00,
2013-01-27 19:24:00,37.0,29.5,30.54,West,263,0.0,0.0,74,0.00,,---,0.01,VWS V14.01,2013-01-28 00:24:00,
2013-01-27 19:25:00,37.0,29.5,30.54,West,263,0.0,0.0,74,0.00,,---,0.01,VWS V14.01,2013-01-28 00:25:00,
2013-01-27 19:30:00,36.9,29.7,30.54,West,263,0.0,0.0,75,0.00,,---,0.01,VWS V14.01,2013-01-28 00:30:00,
2013-01-27 19:34:00,36.8,29.6,30.55,West,263,0.0,0.0,75,0.00,,---,0.01,VWS V14.01,2013-01-28 00:34:00,
2013-01-27 19:35:00,36.8,29.6,30.55,West,263,0.0,0.0,75,0.00,,---,0.01,VWS V14.01,2013-01-28 00:35:00,
2013-01-27 19:39:00,36.7,29.9,30.54,West,263,0.0,0.0,76,0.00,,---,0.01,VWS V14.01,2013-01-28 00:39:00,
2013-01-27 19:40:00,36.7,29.9,30.54,West,263,0.0,0.0,76,0.00,,---,0.01,VWS V14.01,2013-01-28 00:40:00,
2013-01-27 19:44:00,36.6,29.8,30.54,West,263,0.0,0.0,76,0.00,,---,0.01,VWS V14.01,2013-01-28 00:44:00,
2013-01-27 19:45:00,36.6,29.8,30.54,West,263,0.0,0.0,76,0.00,,---,0.01,VWS V14.01,2013-01-28 00:45:00,
2013-01-27 19:49:00,36.6,29.4,30.55,West,263,0.0,0.0,75,0.00,,---,0.01,VWS V14.01,2013-01-28 00:49:00,
2013-01-27 19:50:00,36.6,29.4,30.55,West,263,0.0,0.0,75,0.00,,---,0.01,VWS V14.01,2013-01-28 00:50:00,
2013-01-27 19:55:00,36.5,29.7,30.54,West,263,0.0,0.0,76,0.00,,---,0.01,VWS V14.01,2013-01-28 00:55:00,
2013-01-27 19:59:00,36.5,29.7,30.54,West,263,0.0,0.0,76,0.00,,---,0.01,VWS V14.01,2013-01-28 00:59:00,
2013-01-27 20:00:00,36.5,29.7,30.54,West,263,0.0,0.0,76,0.00,,---,0.01,VWS V14.01,2013-01-28 01:00:00,
2013-01-27 20:04:00,36.4,29.6,30.54,West,263,0.0,0.0,76,0.00,,---,0.01,VWS V14.01,2013-01-28 01:04:00,
2013-01-27 20:05:00,36.4,29.6,30.54,West,263,0.0,0.0,76,0.00,,---,0.01,VWS V14.01,2013-01-28 01:05:00,
2013-01-27 20:09:00,36.4,30.2,30.54,West,263,0.0,0.0,78,0.00,,---,0.01,VWS V14.01,2013-01-28 01:09:00,
2013-01-27 20:10:00,36.4,30.2,30.54,West,263,0.0,0.0,78,0.00,,---,0.01,VWS V14.01,2013-01-28 01:10:00,
2013-01-27 20:14:00,36.3,30.4,30.55,West,263,0.0,0.0,79,0.00,,---,0.01,VWS V14.01,2013-01-28 01:14:00,
2013-01-27 20:15:00,36.3,30.4,30.55,West,263,0.0,0.0,79,0.00,,---,0.01,VWS V14.01,2013-01-28 01:15:00,
2013-01-27 20:19:00,36.2,30.0,30.54,West,263,0.0,0.0,78,0.00,,---,0.01,VWS V14.01,2013-01-28 01:19:00,
2013-01-27 20:20:00,36.2,30.0,30.54,West,263,0.0,0.0,78,0.00,,---,0.01,VWS V14.01,2013-01-28 01:20:00,
2013-01-27 20:24:00,36.1,29.9,30.53,West,263,0.0,0.0,78,0.00,,---,0.01,VWS V14.01,2013-01-28 01:24:00,
2013-01-27 20:25:00,36.1,29.9,30.53,West,263,0.0,0.0,78,0.00,,---,0.01,VWS V14.01,2013-01-28 01:25:00,
2013-01-27 20:29:00,36.1,30.2,30.53,West,263,0.0,0.0,79,0.00,,---,0.01,VWS V14.01,2013-01-28 01:29:00,
2013-01-27 20:30:00,36.1,30.2,30.53,West,263,0.0,0.0,79,0.00,,---,0.01,VWS V14.01,2013-01-28 01:30:00,
2013-01-27 20:35:00,36.0,30.1,30.53,West,263,0.0,0.0,79,0.00,,---,0.01,VWS V14.01,2013-01-28 01:35:00,
2013-01-27 20:39:00,36.0,29.8,30.53,West,263,0.0,0.0,78,0.00,,---,0.01,VWS V14.01,2013-01-28 01:39:00,
2013-01-27 20:40:00,36.0,29.8,30.53,West,263,0.0,0.0,78,0.00,,---,0.01,VWS V14.01,2013-01-28 01:40:00,
2013-01-27 20:45:00,36.0,30.1,30.53,West,263,0.0,0.0,79,0.00,,---,0.01,VWS V14.01,2013-01-28 01:45:00,
2013-01-27 20:49:00,35.9,30.6,30.53,West,263,0.0,0.0,81,0.00,,---,0.01,VWS V14.01,2013-01-28 01:49:00,
2013-01-27 20:50:00,35.9,30.6,30.53,West,263,0.0,0.0,81,0.00,,---,0.01,VWS V14.01,2013-01-28 01:50:00,
2013-01-27 20:54:00,35.8,30.2,30.53,West,263,0.0,0.0,80,0.00,,---,0.01,VWS V14.01,2013-01-28 01:54:00,
2013-01-27 20:55:00,35.8,30.2,30.53,West,263,0.0,0.0,80,0.00,,---,0.01,VWS V14.01,2013-01-28 01:55:00,
2013-01-27 20:59:00,35.7,30.1,30.53,West,263,0.0,0.0,80,0.00,,---,0.01,VWS V14.01,2013-01-28 01:59:00,
2013-01-27 21:00:00,36.4,29.6,30.52,ESE,121,0.0,1.0,76,0.00,,---,0.01,VWS V14.01,2013-01-28 02:00:00,
2013-01-27 21:05:00,35.7,30.1,30.53,West,263,0.0,0.0,80,0.00,,---,0.01,VWS V14.01,2013-01-28 02:05:00,
2013-01-27 21:09:00,35.7,30.1,30.53,West,263,0.0,0.0,80,0.00,,---,0.01,VWS V14.01,2013-01-28 02:09:00,
2013-01-27 21:10:00,35.7,30.1,30.53,West,263,0.0,0.0,80,0.00,,---,0.01,VWS V14.01,2013-01-28 02:10:00,
2013-01-27 21:14:00,35.7,29.8,30.53,West,263,0.0,0.0,79,0.00,,---,0.01,VWS V14.01,2013-01-28 02:14:00,
2013-01-27 21:15:00,35.7,29.8,30.53,West,263,0.0,0.0,79,0.00,,---,0.01,VWS V14.01,2013-01-28 02:15:00,
2013-01-27 21:19:00,35.8,30.5,30.54,West,263,0.0,0.0,81,0.00,,---,0.01,VWS V14.01,2013-01-28 02:19:00,
2013-01-27 21:20:00,35.8,30.5,30.54,West,263,0.0,0.0,81,0.00,,---,0.01,VWS V14.01,2013-01-28 02:20:00,
2013-01-27 21:24:00,35.7,30.1,30.53,West,263,0.0,1.0,80,0.00,,---,0.01,VWS V14.01,2013-01-28 02:24:00,
2013-01-27 21:25:00,35.7,30.1,30.53,West,263,0.0,1.0,80,0.00,,---,0.01,VWS V14.01,2013-01-28 02:25:00,
2013-01-27 21:30:00,35.8,29.9,30.53,West,263,0.0,0.0,79,0.00,,---,0.01,VWS V14.01,2013-01-28 02:30:00,
2013-01-27 21:34:00,35.9,29.7,30.53,West,263,0.0,0.0,78,0.00,,---,0.01,VWS V14.01,2013-01-28 02:34:00,
2013-01-27 21:35:00,35.9,29.7,30.53,West,263,0.0,0.0,78,0.00,,---,0.01,VWS V14.01,2013-01-28 02:35:00,
2013-01-27 21:40:00,36.0,29.5,30.53,West,263,0.0,0.0,77,0.00,,---,0.01,VWS V14.01,2013-01-28 02:40:00,
2013-01-27 21:44:00,36.1,29.3,30.53,West,263,0.0,0.0,76,0.00,,---,0.01,VWS V14.01,2013-01-28 02:44:00,
2013-01-27 21:45:00,36.1,29.3,30.53,West,263,0.0,0.0,76,0.00,,---,0.01,VWS V14.01,2013-01-28 02:45:00,
2013-01-27 21:50:00,36.1,29.0,30.52,West,263,0.0,2.0,75,0.00,,---,0.01,VWS V14.01,2013-01-28 02:50:00,
2013-01-27 21:54:00,36.3,28.8,30.52,ESE,121,0.0,2.0,74,0.00,,---,0.01,VWS V14.01,2013-01-28 02:54:00,
2013-01-27 21:55:00,36.3,28.8,30.52,ESE,121,0.0,2.0,74,0.00,,---,0.01,VWS V14.01,2013-01-28 02:55:00,
2013-01-27 21:59:00,36.4,29.6,30.52,ESE,121,0.0,1.0,76,0.00,,---,0.01,VWS V14.01,2013-01-28 02:59:00,
2013-01-27 22:00:00,36.4,29.6,30.52,ESE,121,0.0,1.0,76,0.00,,---,0.01,VWS V14.01,2013-01-28 03:00:00,
2013-01-27 22:04:00,36.5,29.3,30.51,ESE,121,0.0,1.0,75,0.00,,---,0.01,VWS V14.01,2013-01-28 03:04:00,
2013-01-27 22:05:00,36.5,29.3,30.51,ESE,121,0.0,1.0,75,0.00,,---,0.01,VWS V14.01,2013-01-28 03:05:00,
2013-01-27 22:09:00,36.5,29.3,30.52,ESE,121,0.0,1.0,75,0.00,,---,0.01,VWS V14.01,2013-01-28 03:09:00,
2013-01-27 22:10:00,36.5,29.3,30.52,ESE,121,0.0,1.0,75,0.00,,---,0.01,VWS V14.01,2013-01-28 03:10:00,
2013-01-27 22:15:00,36.5,29.3,30.51,ESE,121,0.0,0.0,75,0.00,,---,0.01,VWS V14.01,2013-01-28 03:15:00,
2013-01-27 22:19:00,36.5,29.0,30.51,ESE,121,0.0,0.0,74,0.00,,---,0.01,VWS V14.01,2013-01-28 03:19:00,
2013-01-27 22:20:00,36.5,29.0,30.51,ESE,121,0.0,0.0,74,0.00,,---,0.01,VWS V14.01,2013-01-28 03:20:00,
2013-01-27 22:24:00,36.5,29.0,30.51,ESE,121,0.0,0.0,74,0.00,,---,0.01,VWS V14.01,2013-01-28 03:24:00,
2013-01-27 22:25:00,36.5,29.0,30.51,ESE,121,0.0,0.0,74,0.00,,---,0.01,VWS V14.01,2013-01-28 03:25:00,
2013-01-27 22:29:00,36.5,29.0,30.51,ESE,121,0.0,0.0,74,0.00,,---,0.01,VWS V14.01,2013-01-28 03:29:00,
2013-01-27 22:30:00,36.5,29.0,30.51,ESE,121,0.0,0.0,74,0.00,,---,0.01,VWS V14.01,2013-01-28 03:30:00,
2013-01-27 22:34:00,36.5,29.0,30.51,ESE,121,0.0,0.0,74,0.00,,---,0.01,VWS V14.01,2013-01-28 03:34:00,
2013-01-27 22:35:00,36.5,29.0,30.51,ESE,121,0.0,0.0,74,0.00,,---,0.01,VWS V14.01,2013-01-28 03:35:00,
2013-01-27 22:39:00,36.2,29.0,30.52,ESE,121,0.0,0.0,75,0.00,,---,0.01,VWS V14.01,2013-01-28 03:39:00,
2013-01-27 22:40:00,36.2,29.0,30.52,ESE,121,0.0,0.0,75,0.00,,---,0.01,VWS V14.01,2013-01-28 03:40:00,
2013-01-27 22:44:00,36.1,28.6,30.52,ESE,121,0.0,0.0,74,0.00,,---,0.01,VWS V14.01,2013-01-28 03:44:00,
2013-01-27 22:45:00,36.1,28.6,30.52,ESE,121,0.0,0.0,74,0.00,,---,0.01,VWS V14.01,2013-01-28 03:45:00,
2013-01-27 22:49:00,36.0,28.5,30.52,ESE,121,0.0,0.0,74,0.00,,---,0.01,VWS V14.01,2013-01-28 03:49:00,
2013-01-27 22:50:00,35.1,29.2,30.51,ESE,121,0.0,0.0,79,0.00,,---,0.01,VWS V14.01,2013-01-28 03:50:00,
2013-01-27 22:55:00,36.0,28.5,30.52,ESE,121,0.0,0.0,74,0.00,,---,0.01,VWS V14.01,2013-01-28 03:55:00,
2013-01-27 23:00:00,35.9,28.8,30.52,ESE,121,0.0,0.0,75,0.00,,---,0.01,VWS V14.01,2013-01-28 04:00:00,
2013-01-27 23:04:00,35.9,28.4,30.51,ESE,121,0.0,0.0,74,0.00,,---,0.01,VWS V14.01,2013-01-28 04:04:00,
2013-01-27 23:05:00,35.9,28.4,30.51,ESE,121,0.0,0.0,74,0.00,,---,0.01,VWS V14.01,2013-01-28 04:05:00,
2013-01-27 23:09:00,35.8,29.3,30.52,ESE,121,0.0,0.0,77,0.00,,---,0.01,VWS V14.01,2013-01-28 04:09:00,
2013-01-27 23:10:00,35.8,29.3,30.52,ESE,121,0.0,0.0,77,0.00,,---,0.01,VWS V14.01,2013-01-28 04:10:00,
2013-01-27 23:14:00,35.7,29.2,30.51,ESE,121,0.0,0.0,77,0.00,,---,0.01,VWS V14.01,2013-01-28 04:14:00,
2013-01-27 23:15:00,35.7,29.2,30.51,ESE,121,0.0,0.0,77,0.00,,---,0.01,VWS V14.01,2013-01-28 04:15:00,
2013-01-27 23:19:00,35.6,29.4,30.51,ESE,121,0.0,0.0,78,0.00,,---,0.01,VWS V14.01,2013-01-28 04:19:00,
2013-01-27 23:20:00,35.6,29.4,30.51,ESE,121,0.0,0.0,78,0.00,,---,0.01,VWS V14.01,2013-01-28 04:20:00,
2013-01-27 23:24:00,35.5,29.0,30.51,ESE,121,1.0,1.0,77,0.00,,---,0.01,VWS V14.01,2013-01-28 04:24:00,
2013-01-27 23:25:00,35.5,29.0,30.51,ESE,121,1.0,1.0,77,0.00,,---,0.01,VWS V14.01,2013-01-28 04:25:00,
2013-01-27 23:29:00,35.5,29.3,30.51,ESE,121,0.0,1.0,78,0.00,,---,0.01,VWS V14.01,2013-01-28 04:29:00,
2013-01-27 23:30:00,35.5,29.3,30.51,ESE,121,0.0,1.0,78,0.00,,---,0.01,VWS V14.01,2013-01-28 04:30:00,
2013-01-27 23:34:00,35.3,29.5,30.51,ESE,121,0.0,0.0,79,0.00,,---,0.01,VWS V14.01,2013-01-28 04:34:00,
2013-01-27 23:35:00,35.3,29.5,30.51,ESE,121,0.0,0.0,79,0.00,,---,0.01,VWS V14.01,2013-01-28 04:35:00,
2013-01-27 23:39:00,35.2,29.4,30.51,ESE,121,0.0,0.0,79,0.00,,---,0.01,VWS V14.01,2013-01-28 04:39:00,
2013-01-27 23:40:00,35.2,29.4,30.51,ESE,121,0.0,0.0,79,0.00,,---,0.01,VWS V14.01,2013-01-28 04:40:00,
2013-01-27 23:44:00,35.1,28.9,30.51,ESE,121,0.0,0.0,78,0.00,,---,0.01,VWS V14.01,2013-01-28 04:44:00,
2013-01-27 23:45:00,35.1,28.9,30.51,ESE,121,0.0,0.0,78,0.00,,---,0.01,VWS V14.01,2013-01-28 04:45:00,
2013-01-27 23:49:00,35.1,29.3,30.51,ESE,121,0.0,0.0,79,0.00,,---,0.01,VWS V14.01,2013-01-28 04:49:00,
2013-01-27 23:50:00,35.1,29.2,30.51,ESE,121,0.0,0.0,79,0.00,,---,0.01,VWS V14.01,2013-01-28 04:50:00,
2013-01-27 23:55:00,35.2,29.7,30.50,ESE,121,2.0,2.0,80,0.00,,---,0.01,VWS V14.01,2013-01-28 04:55:00,